[[{"header":{"parameterUnit":"m.s-1","parameterCategory":1,"la1":30.2991,"la2":30.254,"lo1":-89.0895,"lo2":-89.0444,"dy":0.0017,"dx":0.0017,"nx":28,"ny":28,"refTime":"2026-02-10T03:00:00:Z","depth":0,"parameterNumber":2,"parameterNumberName":"U-component_of_WINDS"},"data":[0,0,0,0,0,0,0,0,0,0,0,0,0,0,0,0,0,0,0,0,0,0,0,0,0,0,0,0,0,0,0,0,0,0,0,0,0,0,0,0,0,0,0,0,0,0,0,0,0,0,0,0,0,0,0,0,0,0,0.5758,0.5758,0,0.5714,0.5713,0.5713,0.566,0.5659,0.5658,0.5657,0.5612,0.5611,0.5611,0,0,0,0,0,0,0,0,0,0,0,0,0,0.5796,0.5795,0.5758,0.5758,0.5757,0.5714,0.5713,0.5713,0.566,0.5659,0.5658,0.5657,0.5612,0.5611,0.5611,0,0,0,0,0,0,0,0,0,0,0,0,0,0.5768,0.5795,0.5758,0.5726,0.5722,0.5714,0.5713,0.5712,0.566,0.5659,0.5658,0.5656,0.5612,0.5611,0.5611,0.5631,0,0,0.5609,0.5608,0,0,0,0,0,0,0,0,0.577,0.5767,0.5731,0.5728,0.5724,0.5691,0.571,0.5685,0.566,0.5684,0.5657,0.5656,0.5639,0.5636,0.563,0.5629,0.5627,0.5609,0.5608,0.5608,0.5608,0,0,0,0,0,0,0,0.5772,0.5769,0.5741,0.573,0.5726,0.5712,0.5707,0.5705,0.5669,0.5681,0.5678,0.5673,0.5637,0.5631,0.5629,0.5626,0.5609,0.5608,0.5608,0.5607,0.5637,0.5638,0,0,0,0,0,0,0.5779,0.5771,0.5742,0.5739,0.5744,0.5713,0.5707,0.5703,0.5669,0.5662,0.5674,0.5671,0.5633,0.563,0.5627,0.5647,0.5608,0.5607,0.5607,0.5635,0.5637,0.5638,0,0,0,0,0,0,0.578,0.5777,0.5744,0.5754,0.5748,0.5713,0.5709,0.5703,0.5697,0.5663,0.5656,0.5675,0.5632,0.5628,0.563,0.5645,0.5607,0.5606,0.5634,0.5636,0.5637,0.5688,0,0,0,0,0,0,0.5781,0.5778,0.5785,0.5754,0.5748,0.5748,0.571,0.5703,0.5696,0.5691,0.5662,0.5656,0.5631,0.5631,0.5629,0.5643,0.5606,0.5632,0.5635,0.5637,0.5685,0.5692,0.5697,0,0,0,0,0,0.5783,0.5802,0.5786,0.5783,0.5757,0.5749,0.5745,0.5716,0.5697,0.5704,0.5682,0.5657,0.5644,0.5632,0.5629,0.5643,0.5631,0.5634,0.5637,0.5682,0.569,0.5697,0,0,0,0,0,0,0.5836,0.5798,0.5779,0.5789,0.5773,0.574,0.5748,0.5725,0.5714,0.571,0.5673,0.5667,0.5673,0.5658,0.5646,0.566,0.5634,0.5636,0.5669,0.5676,0.5682,0.5686,0.5605,0,0,0,0,0,0.5849,0.5846,0.5812,0.5824,0.5817,0.5784,0.5779,0.5758,0.5739,0.5732,0.571,0.5693,0.5684,0.568,0.567,0.5683,0.5674,0.5691,0.5697,0.5702,0.5704,0.5707,0.5713,0.5647,0.5647,0.5647,0,0,0.5876,0.5854,0.5855,0.5834,0.5819,0.5816,0.5779,0.5777,0.5774,0.5732,0.5731,0.5715,0.5693,0.57,0.5701,0.5687,0.572,0.5705,0.5709,0.5709,0.5711,0.5717,0.5723,0.5649,0.5648,0.5648,0,0,0.5923,0.5907,0.5914,0.5899,0.5876,0.5854,0.5856,0.5826,0.5813,0.5812,0.578,0.5775,0.5762,0.5747,0.5738,0.5777,0.5752,0.5775,0.5806,0.5809,0.5815,0.5819,0.5831,0.5836,0.5777,0.5777,0.5777,0,0.5959,0.5953,0.5921,0.5921,0.5912,0.5873,0.5879,0.5866,0.5841,0.5836,0.582,0.5801,0.5784,0.5786,0.5795,0.5789,0.5789,0.5778,0.5817,0.5821,0.5824,0.5836,0.5841,0.578,0.578,0.5779,0.5779,0,0.5998,0.5994,0.6003,0.5979,0.5971,0.5975,0.5942,0.5938,0.5916,0.5895,0.5894,0.5871,0.5856,0.5854,0.5834,0.5852,0.5844,0.5823,0.5796,0.5834,0.5844,0.5848,0.5784,0.5783,0.5782,0.5781,0,0,0.6079,0.6035,0.6039,0.6027,0.5998,0.5994,0.5994,0.5979,0.5975,0.5959,0.5957,0.5946,0.5926,0.5915,0.5892,0.5896,0.5926,0.5874,0.5873,0.5883,0.5943,0.5958,0.5964,0.5909,0.591,0.5911,0.5944,0,0.6119,0.6118,0.6088,0.6095,0.609,0.6052,0.6052,0.6034,0.6014,0.6006,0.5984,0.5976,0.5951,0.5944,0.5945,0.5922,0.5937,0.5919,0.5907,0.5907,0.5913,0.5969,0.5986,0.6018,0.5948,0.5948,0.5949,0,0.6167,0.6152,0.6159,0.6127,0.6124,0.6125,0.6107,0.6101,0.6078,0.6063,0.6051,0.6024,0.6021,0.5996,0.5991,0.5979,0.5972,0.596,0.596,0.5957,0.593,0.5967,0.6028,0.6033,0.5955,0.5954,0.5954,0,0.6223,0.6205,0.6206,0.6197,0.6161,0.6162,0.6147,0.6123,0.6115,0.6099,0.6093,0.6078,0.6069,0.6057,0.6026,0.6011,0.6023,0.5996,0.601,0.6011,0.6014,0.6014,0.6074,0.6011,0.6011,0.6011,0.6011,0,0.6271,0.6276,0.6231,0.6231,0.6235,0.62,0.6205,0.6186,0.6165,0.616,0.6126,0.6123,0.6083,0.6074,0.6051,0.6049,0.6045,0.6032,0.6026,0.6035,0.6036,0.6029,0.6026,0.6013,0.6012,0.6012,0.6012,0,0.6334,0.6304,0.6302,0.6268,0.6259,0.6264,0.6233,0.6232,0.6209,0.6204,0.62,0.6165,0.6153,0.6121,0.6101,0.6085,0.6089,0.6078,0.6097,0.6092,0.6108,0.6106,0.6165,0.617,0.6105,0.6106,0.6106,0,0.6366,0.6369,0.6335,0.6329,0.6315,0.6307,0.6298,0.6263,0.6255,0.6228,0.623,0.6215,0.6201,0.6183,0.6155,0.6139,0.6126,0.6148,0.6124,0.6132,0.6125,0.6125,0.6124,0.6153,0.6154,0.6155,0.6155,0,0.6426,0.6411,0.6399,0.6382,0.6372,0.6357,0.634,0.6337,0.6298,0.629,0.6277,0.6267,0.6245,0.623,0.621,0.6193,0.6167,0.6163,0.6165,0.6174,0.6184,0.6177,0.611,0.6162,0.6161,0.6161,0.616,0.616,0.6474,0.6474,0.6449,0.6437,0.642,0.6404,0.6401,0.6377,0.6366,0.6346,0.6326,0.6314,0.629,0.6259,0.6244,0.6234,0.6221,0.6224,0.6225,0.6226,0.6229,0.6187,0.623,0.623,0.623,0.6229,0.6229,0,0.653,0.6512,0.6501,0.6478,0.6468,0.6445,0.6424,0.6417,0.6408,0.6387,0.6374,0.6358,0.6343,0.6313,0.6295,0.6292,0.628,0.6288,0.6288,0.6284,0.6243,0.6242,0.6299,0.6299,0.6299,0.6299,0.6299,0.6299,0.6558,0.6557,0.6538,0.6527,0.6508,0.6497,0.6487,0.6472,0.6455,0.6439,0.6426,0.6407,0.6382,0.6361,0.6346,0.6337,0.6332,0.6344,0.6332,0.6294,0.6287,0.6281,0.628,0.6343,0.6344,0.6373,0.6373,0.6374]},{"header":{"parameterUnit":"m.s-1","parameterCategory":1,"la1":30.2991,"la2":30.254,"lo1":-89.0895,"lo2":-89.0444,"dy":0.0017,"dx":0.0017,"nx":28,"ny":28,"refTime":"2026-02-10T03:00:00:Z","depth":0,"parameterNumber":3,"parameterNumberName":"V-component_of_WINDS"},"data":[0,0,0,0,0,0,0,0,0,0,0,0,0,0,0,0,0,0,0,0,0,0,0,0,0,0,0,0,0,0,0,0,0,0,0,0,0,0,0,0,0,0,0,0,0,0,0,0,0,0,0,0,0,0,0,0,0,0,2.4875,2.4875,0,2.4846,2.4846,2.4846,2.4828,2.4828,2.4828,2.4828,2.4795,2.4794,2.4794,0,0,0,0,0,0,0,0,0,0,0,0,0,2.4914,2.4913,2.4875,2.4875,2.4875,2.4846,2.4846,2.4845,2.4828,2.4828,2.4828,2.4828,2.4795,2.4794,2.4793,0,0,0,0,0,0,0,0,0,0,0,0,0,2.4892,2.4913,2.4875,2.4863,2.4861,2.4846,2.4846,2.4845,2.4828,2.4828,2.4828,2.4828,2.4796,2.4795,2.4793,2.4788,0,0,2.479,2.4789,0,0,0,0,0,0,0,0,2.4893,2.4891,2.4865,2.4863,2.4862,2.4841,2.4847,2.4826,2.4828,2.484,2.4828,2.4828,2.481,2.4808,2.4802,2.4787,2.4785,2.479,2.4789,2.4788,2.4788,0,0,0,0,0,0,0,2.4895,2.4892,2.4864,2.4864,2.4863,2.4858,2.4854,2.4843,2.4826,2.4839,2.4838,2.4835,2.4809,2.4804,2.4802,2.4785,2.479,2.4789,2.4788,2.4787,2.4764,2.4764,0,0,0,0,0,0,2.4899,2.4893,2.4865,2.4863,2.4878,2.4857,2.4853,2.4847,2.4826,2.4823,2.4835,2.4834,2.4806,2.4803,2.48,2.4793,2.4788,2.4787,2.4787,2.4764,2.4764,2.4764,0,0,0,0,0,0,2.4899,2.4896,2.4866,2.4878,2.4873,2.4856,2.485,2.4847,2.4841,2.4823,2.482,2.4833,2.4806,2.4802,2.4792,2.4792,2.4787,2.4786,2.4764,2.4764,2.4764,2.4779,0,0,0,0,0,0,2.4901,2.4897,2.4895,2.4878,2.4873,2.4858,2.485,2.4847,2.484,2.4838,2.482,2.4817,2.4805,2.4794,2.4791,2.479,2.4785,2.4764,2.4764,2.4764,2.4779,2.478,2.4781,0,0,0,0,0,2.4902,2.49,2.4895,2.4892,2.487,2.4858,2.4855,2.4843,2.484,2.4838,2.4826,2.4817,2.4793,2.4793,2.4789,2.4789,2.4764,2.4764,2.4764,2.4778,2.478,2.4781,0,0,0,0,0,0,2.4916,2.4897,2.4892,2.4884,2.4873,2.4855,2.4852,2.4845,2.4834,2.4833,2.4817,2.4813,2.4805,2.4795,2.4796,2.4783,2.4777,2.4777,2.4789,2.4791,2.4792,2.4794,2.4784,0,0,0,0,0,2.4919,2.4911,2.4894,2.4889,2.4884,2.4869,2.4864,2.4855,2.4843,2.4838,2.4825,2.4813,2.4803,2.4796,2.4785,2.4778,2.4773,2.4775,2.4777,2.4778,2.4777,2.4773,2.4774,2.4765,2.4765,2.4765,0,0,2.4923,2.4912,2.4908,2.4892,2.4882,2.4874,2.4865,2.4857,2.4851,2.4836,2.4826,2.4817,2.4802,2.4793,2.4789,2.4785,2.4779,2.4778,2.4779,2.4778,2.4773,2.4774,2.4775,2.4765,2.4765,2.4765,0,0,2.4927,2.4918,2.4913,2.4904,2.489,2.4881,2.4879,2.4863,2.4857,2.4847,2.4836,2.4828,2.481,2.48,2.4793,2.4795,2.4786,2.4792,2.4798,2.4794,2.4794,2.4795,2.4796,2.4796,2.4791,2.4791,2.4791,0,2.4934,2.4923,2.4911,2.4904,2.4897,2.4884,2.4879,2.487,2.4854,2.4849,2.4846,2.4824,2.4813,2.4802,2.4803,2.4797,2.4795,2.4793,2.4795,2.4796,2.4796,2.4797,2.4797,2.4792,2.4792,2.4792,2.4792,0,2.4932,2.4924,2.4921,2.4907,2.49,2.4894,2.488,2.4874,2.4867,2.4858,2.4848,2.4834,2.4821,2.4818,2.481,2.4806,2.4804,2.4799,2.4792,2.4798,2.4798,2.4799,2.4793,2.4793,2.4793,2.4792,0,0,2.4943,2.4923,2.4923,2.4916,2.4901,2.4894,2.4887,2.4876,2.4871,2.486,2.4854,2.484,2.4835,2.4826,2.4817,2.4814,2.4816,2.4808,2.4807,2.481,2.4812,2.4817,2.4817,2.4811,2.4811,2.4811,2.4813,0,2.4945,2.4933,2.4923,2.4914,2.4907,2.4896,2.489,2.4879,2.4871,2.4863,2.4853,2.4843,2.4837,2.4832,2.4828,2.4817,2.4817,2.4817,2.4805,2.4804,2.4809,2.4817,2.4822,2.4825,2.4813,2.4813,2.4813,0,2.4946,2.4937,2.4928,2.4914,2.4911,2.4906,2.4895,2.4887,2.4875,2.4869,2.4861,2.4852,2.4844,2.4839,2.4827,2.4828,2.4822,2.4816,2.4816,2.4814,2.4809,2.4816,2.4825,2.4826,2.4813,2.4813,2.4813,0,2.4956,2.4941,2.4934,2.4929,2.4912,2.4909,2.4902,2.489,2.4884,2.4874,2.487,2.4859,2.4853,2.4844,2.4832,2.483,2.4822,2.4816,2.4817,2.4817,2.4815,2.4816,2.4824,2.4812,2.4812,2.4812,2.4812,0,2.4959,2.4954,2.4938,2.4934,2.4928,2.4916,2.4911,2.4903,2.4892,2.4886,2.4875,2.4869,2.4854,2.4846,2.4836,2.4829,2.4826,2.482,2.4818,2.4821,2.4822,2.4817,2.4817,2.4812,2.4812,2.4812,2.4812,0,2.4969,2.4958,2.495,2.4935,2.4932,2.4928,2.4915,2.4911,2.4902,2.4894,2.4892,2.4877,2.4868,2.4855,2.4841,2.4835,2.4828,2.4824,2.4833,2.4831,2.4833,2.4833,2.4838,2.4839,2.4826,2.4826,2.4827,0,2.4971,2.4968,2.4953,2.4949,2.4942,2.4935,2.4929,2.4917,2.4911,2.4898,2.4895,2.4885,2.4876,2.4862,2.485,2.4839,2.4835,2.4838,2.4833,2.4837,2.4835,2.4836,2.4835,2.4839,2.4839,2.4839,2.4839,0,2.4978,2.4973,2.4965,2.4956,2.495,2.4942,2.4933,2.493,2.4916,2.491,2.4901,2.4894,2.4881,2.4871,2.4859,2.4851,2.4843,2.4841,2.484,2.4844,2.4849,2.4847,2.4836,2.484,2.484,2.484,2.484,2.484,2.4984,2.498,2.497,2.4962,2.4955,2.4947,2.4942,2.4934,2.4926,2.4915,2.4908,2.4899,2.4888,2.4871,2.4864,2.4857,2.4853,2.4853,2.4852,2.4853,2.4854,2.4851,2.4854,2.4854,2.4854,2.4854,2.4854,0,2.499,2.4983,2.4976,2.4965,2.4959,2.4953,2.4943,2.4938,2.4931,2.4922,2.4914,2.4903,2.4894,2.4882,2.4872,2.4868,2.4864,2.4866,2.4866,2.4864,2.4857,2.4859,2.4869,2.4869,2.4869,2.4869,2.4869,2.4869,2.4992,2.4986,2.498,2.4971,2.4963,2.4955,2.4951,2.4944,2.4936,2.4926,2.4918,2.4911,2.49,2.489,2.4881,2.4877,2.4874,2.4877,2.4873,2.4866,2.4865,2.4863,2.4865,2.4876,2.4876,2.488,2.488,2.488]}]]